When you browse on this site, cookies collect data to enhance your experience and personalize the content and advertising you see.
Visit our Privacy Policy to learn more. By continuing to use the site, you agree to this use of cookies and data.
  • în România
  • Lista ţărilor
  • Pe 7 zile
  • Temperatura apei
  • Hartă satelitară
  • Meteo pe hartă
  • Widget-uri
  • user-avatar
    Intrare

    Meteo pe oră la Melun

    Astăzi, 16 Iunie, Duminică

    Timp Temperatura Precipitaţii Vânt Presiune Umiditate
    00:00 +12°C° 0 mm 3 m/s 760 mmHg 92%
    01:00 +11°C° 0 mm 3 m/s 760 mmHg 93%
    02:00 +11°C° 0 mm 3 m/s 760 mmHg 94%
    03:00 +11°C° 0 mm 3 m/s 760 mmHg 95%
    04:00 +11°C° 0 mm 3 m/s 760 mmHg 93%
    05:00 +12°C° 0 mm 3 m/s 760 mmHg 92%
    06:00 +13°C° 0 mm 3 m/s 761 mmHg 91%
    07:00 +14°C° 0 mm 3 m/s 761 mmHg 87%
    08:00 +16°C° 0 mm 3 m/s 761 mmHg 83%
    09:00 +17°C° 0 mm 3 m/s 761 mmHg 79%
    10:00 +18°C° 0.1 mm 3 m/s 761 mmHg 75%
    11:00 +19°C° 0.1 mm 3 m/s 761 mmHg 72%
    12:00 +20°C° 0.1 mm 3 m/s 761 mmHg 69%
    13:00 +21°C° 0.1 mm 3 m/s 761 mmHg 68%
    14:00 +21°C° 0.1 mm 3 m/s 760 mmHg 67%
    15:00 +22°C° 0.1 mm 3 m/s 760 mmHg 66%
    16:00 +21°C° 0 mm 2 m/s 760 mmHg 69%
    17:00 +21°C° 0 mm 2 m/s 760 mmHg 72%
    18:00 +22°C° 0 mm 1 m/s 760 mmHg 75%
    19:00 +20°C° 0 mm 1 m/s 760 mmHg 79%
    20:00 +18°C° 0 mm 1 m/s 760 mmHg 82%
    21:00 +16°C° 0 mm 1 m/s 760 mmHg 86%
    22:00 +15°C° 0 mm 1 m/s 760 mmHg 87%
    23:00 +15°C° 0 mm 1 m/s 760 mmHg 88%

    Mâine, 17 Iunie, Luni

    Timp Temperatura Precipitaţii Vânt Presiune Umiditate
    00:00 +13°C° 0 mm 0 m/s 760 mmHg 89%
    01:00 +13°C° 0 mm 0 m/s 760 mmHg 89%
    02:00 +14°C° 0 mm 1 m/s 760 mmHg 90%
    03:00 +14°C° 0 mm 1 m/s 759 mmHg 90%
    04:00 +13°C° 0 mm 0 m/s 759 mmHg 89%
    05:00 +14°C° 0 mm 0 m/s 760 mmHg 88%
    06:00 +15°C° 0 mm 0 m/s 760 mmHg 87%
    07:00 +17°C° 0 mm 0 m/s 760 mmHg 81%
    08:00 +19°C° 0 mm 0 m/s 760 mmHg 76%
    09:00 +23°C° 0 mm 1 m/s 760 mmHg 70%
    10:00 +24°C° 0 mm 1 m/s 759 mmHg 66%
    11:00 +25°C° 0 mm 1 m/s 759 mmHg 61%
    12:00 +26°C° 0 mm 1 m/s 759 mmHg 57%
    13:00 +26°C° 0 mm 1 m/s 758 mmHg 56%
    14:00 +26°C° 0 mm 1 m/s 758 mmHg 56%
    15:00 +26°C° 0 mm 1 m/s 758 mmHg 55%
    16:00 +25°C° 0 mm 1 m/s 757 mmHg 60%
    17:00 +25°C° 0 mm 1 m/s 757 mmHg 66%
    18:00 +24°C° 0 mm 1 m/s 757 mmHg 71%
    19:00 +23°C° 0 mm 1 m/s 757 mmHg 75%
    20:00 +21°C° 0 mm 1 m/s 757 mmHg 78%
    21:00 +19°C° 0 mm 1 m/s 757 mmHg 82%
    22:00 +19°C° 0 mm 1 m/s 757 mmHg 84%
    23:00 +18°C° 0 mm 1 m/s 757 mmHg 85%

    Poimâine, 18 Iunie, Marţi

    Timp Temperatura Precipitaţii Vânt Presiune Umiditate
    00:00 +16°C° 0 mm 1 m/s 757 mmHg 87%
    01:00 +16°C° 0 mm 1 m/s 757 mmHg 88%
    02:00 +16°C° 0 mm 1 m/s 756 mmHg 89%
    03:00 +15°C° 0 mm 1 m/s 756 mmHg 90%
    04:00 +16°C° 0 mm 1 m/s 756 mmHg 89%
    05:00 +17°C° 0 mm 2 m/s 756 mmHg 88%
    06:00 +18°C° 0 mm 2 m/s 756 mmHg 86%
    07:00 +19°C° 0 mm 2 m/s 756 mmHg 82%
    08:00 +21°C° 0 mm 2 m/s 756 mmHg 77%
    09:00 +23°C° 0 mm 2 m/s 756 mmHg 73%
    10:00 +24°C° 0 mm 2 m/s 755 mmHg 69%
    11:00 +26°C° 0 mm 2 m/s 755 mmHg 66%
    12:00 +27°C° 0 mm 2 m/s 755 mmHg 62%
    13:00 +27°C° 0 mm 2 m/s 754 mmHg 61%
    14:00 +27°C° 0 mm 2 m/s 754 mmHg 59%
    15:00 +28°C° 0 mm 2 m/s 754 mmHg 58%
    16:00 +27°C° 0.1 mm 2 m/s 753 mmHg 63%
    17:00 +26°C° 0.1 mm 2 m/s 753 mmHg 68%
    18:00 +25°C° 0.1 mm 2 m/s 753 mmHg 74%
    19:00 +24°C° 0 mm 2 m/s 753 mmHg 76%
    20:00 +21°C° 0 mm 2 m/s 753 mmHg 78%
    21:00 +20°C° 0 mm 2 m/s 753 mmHg 80%
    22:00 +20°C° 0 mm 2 m/s 753 mmHg 80%
    23:00 +19°C° 0 mm 3 m/s 752 mmHg 80%

    19 Iunie, Miercuri

    Timp Temperatura Precipitaţii Vânt Presiune Umiditate
    00:00 +19°C° 0 mm 3 m/s 752 mmHg 81%
    01:00 +19°C° 0 mm 3 m/s 751 mmHg 82%
    02:00 +18°C° 0 mm 3 m/s 751 mmHg 84%
    03:00 +18°C° 0 mm 3 m/s 750 mmHg 86%
    04:00 +18°C° 0.1 mm 4 m/s 750 mmHg 85%
    05:00 +19°C° 0.1 mm 4 m/s 750 mmHg 85%
    06:00 +19°C° 0.1 mm 4 m/s 750 mmHg 84%
    07:00 +20°C° 0.5 mm 4 m/s 750 mmHg 83%
    08:00 +21°C° 0.5 mm 4 m/s 751 mmHg 82%
    09:00 +22°C° 0.5 mm 4 m/s 751 mmHg 81%
    10:00 +25°C° 0 mm 5 m/s 751 mmHg 76%
    11:00 +26°C° 0 mm 5 m/s 751 mmHg 71%
    12:00 +27°C° 0 mm 6 m/s 751 mmHg 65%
    13:00 +27°C° 0.3 mm 6 m/s 751 mmHg 65%
    14:00 +26°C° 0.3 mm 6 m/s 752 mmHg 64%
    15:00 +26°C° 0.3 mm 7 m/s 752 mmHg 63%
    16:00 +24°C° 0.1 mm 6 m/s 752 mmHg 68%
    17:00 +23°C° 0.1 mm 5 m/s 752 mmHg 72%
    18:00 +22°C° 0.1 mm 5 m/s 752 mmHg 76%
    19:00 +21°C° 0 mm 4 m/s 753 mmHg 79%
    20:00 +19°C° 0 mm 4 m/s 753 mmHg 81%
    21:00 +18°C° 0 mm 3 m/s 753 mmHg 84%
    22:00 +17°C° 0 mm 4 m/s 754 mmHg 86%
    23:00 +17°C° 0 mm 4 m/s 754 mmHg 88%

    20 Iunie, Joi

    Timp Temperatura Precipitaţii Vânt Presiune Umiditate
    00:00 +15°C° 0 mm 4 m/s 754 mmHg 91%
    01:00 +16°C° 0 mm 3 m/s 754 mmHg 91%
    02:00 +14°C° 0 mm 3 m/s 754 mmHg 92%
    03:00 +14°C° 0 mm 3 m/s 755 mmHg 93%
    04:00 +14°C° 0 mm 3 m/s 755 mmHg 91%
    05:00 +16°C° 0 mm 3 m/s 755 mmHg 89%
    06:00 +16°C° 0 mm 2 m/s 755 mmHg 87%
    07:00 +17°C° 0 mm 2 m/s 756 mmHg 83%
    08:00 +18°C° 0 mm 2 m/s 756 mmHg 78%
    09:00 +19°C° 0 mm 2 m/s 756 mmHg 73%
    10:00 +19°C° 0 mm 2 m/s 756 mmHg 72%
    11:00 +20°C° 0 mm 2 m/s 756 mmHg 70%
    12:00 +22°C° 0 mm 1 m/s 756 mmHg 68%
    13:00 +21°C° 0.1 mm 2 m/s 756 mmHg 67%
    14:00 +21°C° 0.1 mm 2 m/s 756 mmHg 67%
    15:00 +23°C° 0.1 mm 2 m/s 756 mmHg 67%
    16:00 +21°C° 0.4 mm 2 m/s 756 mmHg 72%
    17:00 +20°C° 0.4 mm 2 m/s 756 mmHg 78%
    18:00 +19°C° 0.4 mm 2 m/s 756 mmHg 83%
    19:00 +18°C° 0.1 mm 2 m/s 756 mmHg 84%
    20:00 +17°C° 0.1 mm 2 m/s 756 mmHg 84%
    21:00 +16°C° 0.1 mm 2 m/s 757 mmHg 85%
    22:00 +16°C° 0 mm 2 m/s 757 mmHg 86%
    23:00 +15°C° 0 mm 2 m/s 757 mmHg 87%

    21 Iunie, Vineri

    Timp Temperatura Precipitaţii Vânt Presiune Umiditate
    00:00 +15°C° 0 mm 2 m/s 757 mmHg 88%
    01:00 +15°C° 0 mm 2 m/s 757 mmHg 88%
    02:00 +14°C° 0 mm 2 m/s 757 mmHg 87%
    03:00 +14°C° 0 mm 2 m/s 757 mmHg 87%
    04:00 +14°C° 0 mm 2 m/s 757 mmHg 86%
    05:00 +14°C° 0 mm 2 m/s 757 mmHg 84%
    06:00 +14°C° 0 mm 2 m/s 758 mmHg 83%
    07:00 +15°C° 0 mm 2 m/s 758 mmHg 77%
    08:00 +16°C° 0 mm 1 m/s 758 mmHg 72%
    09:00 +18°C° 0 mm 1 m/s 758 mmHg 66%
    10:00 +20°C° 0 mm 1 m/s 758 mmHg 62%
    11:00 +21°C° 0 mm 1 m/s 758 mmHg 58%
    12:00 +22°C° 0 mm 1 m/s 758 mmHg 55%
    13:00 +22°C° 0 mm 1 m/s 758 mmHg 55%
    14:00 +21°C° 0 mm 2 m/s 758 mmHg 56%
    15:00 +21°C° 0 mm 2 m/s 758 mmHg 56%
    16:00 +21°C° 0 mm 2 m/s 758 mmHg 61%
    17:00 +20°C° 0 mm 2 m/s 758 mmHg 65%
    18:00 +20°C° 0 mm 2 m/s 758 mmHg 70%
    19:00 +18°C° 0 mm 2 m/s 758 mmHg 74%
    20:00 +16°C° 0 mm 2 m/s 759 mmHg 78%
    21:00 +15°C° 0 mm 2 m/s 759 mmHg 82%
    22:00 +14°C° 0 mm 2 m/s 759 mmHg 84%
    23:00 +13°C° 0 mm 2 m/s 759 mmHg 85%
    Arată mai mult